Time,TemperatureF,DewpointF,PressureIn,WindDirection,WindDirectionDegrees,WindSpeedMPH,WindSpeedGustMPH,Humidity,HourlyPrecipIn,Conditions,Clouds,dailyrainin,SoftwareType,DateUTC
2013-04-18 00:00:00,46.0,29.0,30.23,North,0,8.0,11.0,53,0.00,,,0.00,TxWx,2013-04-18 04:00:00,
2013-04-18 00:10:00,46.0,29.0,30.23,NNE,22,16.0,17.0,53,0.00,,,0.00,TxWx,2013-04-18 04:10:00,
2013-04-18 00:15:00,47.0,29.0,30.23,NNE,22,13.0,13.0,52,0.00,,,0.00,TxWx,2013-04-18 04:15:00,
2013-04-18 00:20:00,46.0,28.0,30.22,NE,45,14.0,14.0,51,0.00,,,0.00,TxWx,2013-04-18 04:20:00,
2013-04-18 00:25:00,46.0,28.0,30.23,North,0,12.0,14.0,51,0.00,,,0.00,TxWx,2013-04-18 04:25:00,
2013-04-18 00:31:00,46.0,28.0,30.23,NE,45,10.0,11.0,52,0.00,,,0.00,TxWx,2013-04-18 04:31:00,
2013-04-18 00:36:00,46.0,28.0,30.22,NE,45,11.0,12.0,52,0.00,,,0.00,TxWx,2013-04-18 04:36:00,
2013-04-18 00:37:00,48.0,37.0,30.20,ESE,112,8.0,15.0,65,0.00,,,0.00,TxWx,2013-04-18 04:37:00,
2013-04-18 00:38:00,48.0,37.0,30.20,ESE,112,11.0,11.0,65,0.00,,,0.00,TxWx,2013-04-18 04:38:00,
2013-04-18 00:39:00,48.0,37.0,30.19,SE,135,12.0,16.0,65,0.00,,,0.00,TxWx,2013-04-18 04:39:00,
2013-04-18 00:40:00,48.0,37.0,30.20,SSE,157,13.0,19.0,65,0.00,,,0.00,TxWx,2013-04-18 04:40:00,
2013-04-18 00:41:00,46.0,28.0,30.23,NNE,22,5.0,7.0,52,0.00,,,0.00,TxWx,2013-04-18 04:41:00,
2013-04-18 00:46:00,47.0,29.0,30.23,East,90,1.0,3.0,51,0.00,,,0.00,TxWx,2013-04-18 04:46:00,
2013-04-18 00:47:00,49.0,38.0,30.20,East,90,10.0,10.0,65,0.00,,,0.00,TxWx,2013-04-18 04:47:00,
2013-04-18 00:48:00,48.0,36.0,30.20,SSE,157,6.0,9.0,64,0.00,,,0.00,TxWx,2013-04-18 04:48:00,
2013-04-18 00:51:00,46.0,28.0,30.23,NNE,22,5.0,5.0,51,0.00,,,0.00,TxWx,2013-04-18 04:51:00,
2013-04-18 00:56:00,47.0,29.0,30.23,NE,45,5.0,5.0,51,0.00,,,0.00,TxWx,2013-04-18 04:56:00,
2013-04-18 01:01:00,46.0,28.0,30.23,NE,45,5.0,5.0,51,0.00,,,0.00,TxWx,2013-04-18 05:01:00,
2013-04-18 01:06:00,47.0,29.0,30.23,NE,45,5.0,5.0,51,0.00,,,0.00,TxWx,2013-04-18 05:06:00,
2013-04-18 01:11:00,47.0,28.0,30.23,NNE,22,3.0,5.0,50,0.00,,,0.00,TxWx,2013-04-18 05:11:00,
2013-04-18 01:16:00,47.0,28.0,30.22,ENE,67,6.0,7.0,50,0.00,,,0.00,TxWx,2013-04-18 05:16:00,
2013-04-18 01:21:00,47.0,28.0,30.22,ENE,67,5.0,5.0,50,0.00,,,0.00,TxWx,2013-04-18 05:21:00,
2013-04-18 01:26:00,47.0,28.0,30.22,NNE,22,6.0,6.0,49,0.00,,,0.00,TxWx,2013-04-18 05:26:00,
2013-04-18 01:31:00,47.0,28.0,30.23,East,90,5.0,6.0,49,0.00,,,0.00,TxWx,2013-04-18 05:31:00,
2013-04-18 01:36:00,47.0,28.0,30.22,NE,45,5.0,6.0,49,0.00,,,0.00,TxWx,2013-04-18 05:36:00,
2013-04-18 01:41:00,47.0,28.0,30.22,ESE,112,1.0,1.0,50,0.00,,,0.00,TxWx,2013-04-18 05:41:00,
2013-04-18 01:47:00,46.0,27.0,30.22,East,90,4.0,5.0,50,0.00,,,0.00,TxWx,2013-04-18 05:47:00,
2013-04-18 01:52:00,47.0,28.0,30.22,East,90,5.0,5.0,50,0.00,,,0.00,TxWx,2013-04-18 05:52:00,
2013-04-18 01:57:00,47.0,28.0,30.22,ESE,112,5.0,6.0,50,0.00,,,0.00,TxWx,2013-04-18 05:57:00,
2013-04-18 02:05:00,47.0,28.0,30.22,East,90,5.0,5.0,50,0.00,,,0.00,TxWx,2013-04-18 06:05:00,
2013-04-18 02:10:00,46.0,28.0,30.22,ESE,112,5.0,5.0,51,0.00,,,0.00,TxWx,2013-04-18 06:10:00,
2013-04-18 02:15:00,45.0,27.0,30.21,ESE,112,5.0,6.0,51,0.00,,,0.00,TxWx,2013-04-18 06:15:00,
2013-04-18 02:21:00,45.0,28.0,30.22,ESE,112,5.0,5.0,53,0.00,,,0.00,TxWx,2013-04-18 06:21:00,
2013-04-18 02:26:00,45.0,28.0,30.22,ESE,112,5.0,6.0,54,0.00,,,0.00,TxWx,2013-04-18 06:26:00,
2013-04-18 02:31:00,44.0,28.0,30.22,ESE,112,6.0,7.0,56,0.00,,,0.00,TxWx,2013-04-18 06:31:00,
2013-04-18 02:36:00,44.0,29.0,30.22,ESE,112,6.0,6.0,58,0.00,,,0.00,TxWx,2013-04-18 06:36:00,
2013-04-18 02:41:00,44.0,29.0,30.23,ESE,112,6.0,7.0,59,0.00,,,0.00,TxWx,2013-04-18 06:41:00,
2013-04-18 02:46:00,44.0,30.0,30.23,East,90,4.0,6.0,60,0.00,,,0.00,TxWx,2013-04-18 06:46:00,
2013-04-18 02:51:00,43.0,29.0,30.24,ESE,112,6.0,6.0,61,0.00,,,0.00,TxWx,2013-04-18 06:51:00,
2013-04-18 02:56:00,43.0,30.0,30.24,ESE,112,6.0,6.0,62,0.00,,,0.00,TxWx,2013-04-18 06:56:00,
2013-04-18 03:01:00,42.0,29.0,30.23,ESE,112,6.0,6.0,64,0.00,,,0.00,TxWx,2013-04-18 07:01:00,
2013-04-18 03:06:00,43.0,31.0,30.23,ESE,112,7.0,7.0,64,0.00,,,0.00,TxWx,2013-04-18 07:06:00,
2013-04-18 03:11:00,43.0,31.0,30.23,ESE,112,4.0,6.0,65,0.00,,,0.00,TxWx,2013-04-18 07:11:00,
2013-04-18 03:16:00,43.0,30.0,30.23,ESE,112,7.0,8.0,64,0.00,,,0.00,TxWx,2013-04-18 07:16:00,
2013-04-18 03:21:00,42.0,29.0,30.23,SE,135,7.0,7.0,63,0.00,,,0.00,TxWx,2013-04-18 07:21:00,
2013-04-18 03:26:00,43.0,30.0,30.23,ESE,112,4.0,5.0,63,0.00,,,0.00,TxWx,2013-04-18 07:26:00,
2013-04-18 03:32:00,42.0,29.0,30.23,ESE,112,5.0,5.0,63,0.00,,,0.00,TxWx,2013-04-18 07:32:00,
2013-04-18 03:37:00,42.0,29.0,30.23,SE,135,5.0,6.0,63,0.00,,,0.00,TxWx,2013-04-18 07:37:00,
2013-04-18 03:42:00,42.0,29.0,30.23,ESE,112,5.0,5.0,63,0.00,,,0.00,TxWx,2013-04-18 07:42:00,
2013-04-18 03:43:00,56.0,30.0,30.15,ESE,112,18.0,22.0,38,0.00,,,0.00,TxWx,2013-04-18 07:43:00,
2013-04-18 03:44:00,57.0,31.0,30.14,SE,135,19.0,29.0,39,0.00,,,0.00,TxWx,2013-04-18 07:44:00,
2013-04-18 03:45:00,57.0,31.0,30.14,SE,135,27.0,29.0,38,0.00,,,0.00,TxWx,2013-04-18 07:45:00,
2013-04-18 03:46:00,57.0,31.0,30.15,South,180,19.0,25.0,38,0.00,,,0.00,TxWx,2013-04-18 07:46:00,
2013-04-18 03:47:00,43.0,29.0,30.23,ESE,112,5.0,5.0,63,0.00,,,0.00,TxWx,2013-04-18 07:47:00,
2013-04-18 03:52:00,43.0,29.0,30.23,ESE,112,3.0,3.0,62,0.00,,,0.00,TxWx,2013-04-18 07:52:00,
2013-04-18 03:57:00,42.0,28.0,30.23,SE,135,5.0,5.0,61,0.00,,,0.00,TxWx,2013-04-18 07:57:00,
2013-04-18 04:02:00,42.0,28.0,30.23,SSE,157,4.0,4.0,60,0.00,,,0.00,TxWx,2013-04-18 08:02:00,
2013-04-18 04:07:00,43.0,29.0,30.22,ESE,112,2.0,3.0,59,0.00,,,0.00,TxWx,2013-04-18 08:07:00,
2013-04-18 04:12:00,43.0,28.0,30.22,SSE,157,3.0,3.0,58,0.00,,,0.00,TxWx,2013-04-18 08:12:00,
2013-04-18 04:17:00,43.0,28.0,30.22,SE,135,4.0,5.0,58,0.00,,,0.00,TxWx,2013-04-18 08:17:00,
2013-04-18 04:22:00,43.0,28.0,30.22,SE,135,3.0,4.0,57,0.00,,,0.00,TxWx,2013-04-18 08:22:00,
2013-04-18 04:27:00,43.0,28.0,30.22,ESE,112,4.0,4.0,57,0.00,,,0.00,TxWx,2013-04-18 08:27:00,
2013-04-18 04:32:00,44.0,28.0,30.21,ESE,112,4.0,4.0,56,0.00,,,0.00,TxWx,2013-04-18 08:32:00,
2013-04-18 04:37:00,43.0,27.0,30.21,ESE,112,5.0,5.0,55,0.00,,,0.00,TxWx,2013-04-18 08:37:00,
2013-04-18 04:42:00,44.0,28.0,30.21,SE,135,4.0,4.0,55,0.00,,,0.00,TxWx,2013-04-18 08:42:00,
2013-04-18 04:43:00,58.0,30.0,30.12,ESE,112,16.0,26.0,36,0.00,,,0.00,TxWx,2013-04-18 08:43:00,
2013-04-18 04:46:00,58.0,30.0,30.12,SE,135,15.0,19.0,36,0.00,,,0.00,TxWx,2013-04-18 08:46:00,
2013-04-18 04:47:00,58.0,30.0,30.12,SSE,157,12.0,20.0,36,0.00,,,0.00,TxWx,2013-04-18 08:47:00,
2013-04-18 04:48:00,44.0,28.0,30.21,SSE,157,1.0,2.0,55,0.00,,,0.00,TxWx,2013-04-18 08:48:00,
2013-04-18 04:49:00,58.0,30.0,30.11,SE,135,19.0,24.0,36,0.00,,,0.00,TxWx,2013-04-18 08:49:00,
2013-04-18 04:50:00,57.0,29.0,30.11,ESE,112,21.0,34.0,36,0.00,,,0.00,TxWx,2013-04-18 08:50:00,
2013-04-18 04:51:00,57.0,29.0,30.11,ESE,112,25.0,30.0,36,0.00,,,0.00,TxWx,2013-04-18 08:51:00,
2013-04-18 04:53:00,44.0,28.0,30.21,SSE,157,4.0,4.0,55,0.00,,,0.00,TxWx,2013-04-18 08:53:00,
2013-04-18 04:58:00,43.0,27.0,30.22,SSW,202,3.0,5.0,55,0.00,,,0.00,TxWx,2013-04-18 08:58:00,
2013-04-18 05:03:00,44.0,28.0,30.21,SSW,202,3.0,3.0,56,0.00,,,0.00,TxWx,2013-04-18 09:03:00,
2013-04-18 05:08:00,43.0,27.0,30.21,South,180,2.0,3.0,56,0.00,,,0.00,TxWx,2013-04-18 09:08:00,
2013-04-18 05:13:00,43.0,27.0,30.20,South,180,4.0,4.0,56,0.00,,,0.00,TxWx,2013-04-18 09:13:00,
2013-04-18 05:18:00,43.0,27.0,30.20,SE,135,5.0,5.0,55,0.00,,,0.00,TxWx,2013-04-18 09:18:00,
2013-04-18 05:23:00,43.0,27.0,30.20,SSE,157,6.0,6.0,55,0.00,,,0.00,TxWx,2013-04-18 09:23:00,
2013-04-18 05:28:00,43.0,27.0,30.19,ESE,112,5.0,5.0,55,0.00,,,0.00,TxWx,2013-04-18 09:28:00,
2013-04-18 05:33:00,43.0,27.0,30.19,ESE,112,1.0,3.0,55,0.00,,,0.00,TxWx,2013-04-18 09:33:00,
2013-04-18 05:38:00,43.0,27.0,30.19,ESE,112,2.0,3.0,55,0.00,,,0.00,TxWx,2013-04-18 09:38:00,
2013-04-18 05:43:00,43.0,27.0,30.20,SSE,157,2.0,3.0,55,0.00,,,0.00,TxWx,2013-04-18 09:43:00,
2013-04-18 05:48:00,43.0,27.0,30.20,SSW,202,3.0,3.0,55,0.00,,,0.00,TxWx,2013-04-18 09:48:00,
2013-04-18 05:53:00,43.0,27.0,30.21,SW,225,4.0,4.0,55,0.00,,,0.00,TxWx,2013-04-18 09:53:00,
2013-04-18 05:59:00,43.0,27.0,30.22,SSW,202,3.0,4.0,55,0.00,,,0.00,TxWx,2013-04-18 09:59:00,
2013-04-18 06:04:00,43.0,28.0,30.22,SSW,202,3.0,3.0,57,0.00,,,0.00,TxWx,2013-04-18 10:04:00,
2013-04-18 06:09:00,43.0,28.0,30.21,SSW,202,3.0,3.0,57,0.00,,,0.00,TxWx,2013-04-18 10:09:00,
2013-04-18 06:14:00,43.0,27.0,30.22,SW,225,3.0,3.0,56,0.00,,,0.00,TxWx,2013-04-18 10:14:00,
2013-04-18 06:19:00,43.0,27.0,30.22,SE,135,2.0,2.0,56,0.00,,,0.00,TxWx,2013-04-18 10:19:00,
2013-04-18 06:24:00,43.0,27.0,30.22,South,180,3.0,5.0,56,0.00,,,0.00,TxWx,2013-04-18 10:24:00,
2013-04-18 06:29:00,43.0,27.0,30.22,South,180,4.0,5.0,56,0.00,,,0.00,TxWx,2013-04-18 10:29:00,
2013-04-18 06:34:00,43.0,27.0,30.23,South,180,3.0,4.0,56,0.00,,,0.00,TxWx,2013-04-18 10:34:00,
2013-04-18 06:39:00,43.0,27.0,30.23,South,180,3.0,4.0,56,0.00,,,0.00,TxWx,2013-04-18 10:39:00,
2013-04-18 06:44:00,43.0,27.0,30.24,SSW,202,4.0,5.0,56,0.00,,,0.00,TxWx,2013-04-18 10:44:00,
2013-04-18 06:49:00,43.0,27.0,30.25,SSW,202,3.0,3.0,56,0.00,,,0.00,TxWx,2013-04-18 10:49:00,
2013-04-18 06:54:00,43.0,27.0,30.24,South,180,2.0,3.0,56,0.00,,,0.00,TxWx,2013-04-18 10:54:00,
2013-04-18 06:59:00,43.0,27.0,30.24,SSE,157,3.0,4.0,56,0.00,,,0.00,TxWx,2013-04-18 10:59:00,
2013-04-18 07:04:00,43.0,27.0,30.24,SSE,157,3.0,3.0,56,0.00,,,0.00,TxWx,2013-04-18 11:04:00,
2013-04-18 07:10:00,43.0,27.0,30.24,SE,135,3.0,3.0,56,0.00,,,0.00,TxWx,2013-04-18 11:10:00,
2013-04-18 07:15:00,43.0,27.0,30.24,SSE,157,3.0,4.0,55,0.00,,,0.00,TxWx,2013-04-18 11:15:00,
2013-04-18 07:20:00,43.0,27.0,30.24,SSE,157,3.0,3.0,55,0.00,,,0.00,TxWx,2013-04-18 11:20:00,
2013-04-18 07:25:00,43.0,27.0,30.24,SSE,157,6.0,6.0,55,0.00,,,0.00,TxWx,2013-04-18 11:25:00,
2013-04-18 07:26:00,58.0,34.0,30.06,SE,135,14.0,26.0,41,0.00,,,0.00,TxWx,2013-04-18 11:26:00,
2013-04-18 07:27:00,58.0,34.0,30.06,SE,135,23.0,32.0,40,0.00,,,0.00,TxWx,2013-04-18 11:27:00,
2013-04-18 07:28:00,58.0,34.0,30.06,SE,135,20.0,20.0,41,0.00,,,0.00,TxWx,2013-04-18 11:28:00,
2013-04-18 07:29:00,58.0,34.0,30.06,SE,135,18.0,23.0,41,0.00,,,0.00,TxWx,2013-04-18 11:29:00,
2013-04-18 07:30:00,43.0,27.0,30.24,SE,135,3.0,4.0,55,0.00,,,0.00,TxWx,2013-04-18 11:30:00,
2013-04-18 07:31:00,59.0,35.0,30.06,SSE,157,21.0,21.0,40,0.00,,,0.00,TxWx,2013-04-18 11:31:00,
2013-04-18 07:35:00,44.0,28.0,30.24,ESE,112,3.0,3.0,55,0.00,,,0.00,TxWx,2013-04-18 11:35:00,
2013-04-18 07:40:00,44.0,27.0,30.24,SE,135,5.0,5.0,54,0.00,,,0.00,TxWx,2013-04-18 11:40:00,
2013-04-18 07:45:00,44.0,27.0,30.23,East,90,4.0,4.0,54,0.00,,,0.00,TxWx,2013-04-18 11:45:00,
2013-04-18 07:50:00,45.0,28.0,30.23,ESE,112,5.0,7.0,54,0.00,,,0.00,TxWx,2013-04-18 11:50:00,
2013-04-18 07:55:00,44.0,27.0,30.22,ESE,112,5.0,6.0,53,0.00,,,0.00,TxWx,2013-04-18 11:55:00,
2013-04-18 08:00:00,45.0,28.0,30.22,SE,135,7.0,9.0,53,0.00,,,0.00,TxWx,2013-04-18 12:00:00,
2013-04-18 08:05:00,45.0,27.0,30.22,ESE,112,10.0,11.0,52,0.00,,,0.00,TxWx,2013-04-18 12:05:00,
2013-04-18 08:10:00,45.0,27.0,30.22,ESE,112,10.0,10.0,52,0.00,,,0.00,TxWx,2013-04-18 12:10:00,
2013-04-18 08:15:00,45.0,27.0,30.22,ESE,112,4.0,5.0,52,0.00,,,0.00,TxWx,2013-04-18 12:15:00,
2013-04-18 08:20:00,46.0,28.0,30.22,ESE,112,8.0,10.0,52,0.00,,,0.00,TxWx,2013-04-18 12:20:00,
2013-04-18 08:27:00,46.0,29.0,30.22,East,90,5.0,5.0,53,0.00,,,0.00,TxWx,2013-04-18 12:27:00,
2013-04-18 08:32:00,47.0,30.0,30.22,ENE,67,6.0,8.0,54,0.00,,,0.00,TxWx,2013-04-18 12:32:00,
2013-04-18 08:37:00,47.0,30.0,30.22,ESE,112,12.0,13.0,55,0.00,,,0.00,TxWx,2013-04-18 12:37:00,
2013-04-18 08:42:00,47.0,31.0,30.22,ESE,112,16.0,16.0,56,0.00,,,0.00,TxWx,2013-04-18 12:42:00,
2013-04-18 08:47:00,47.0,32.0,30.21,SE,135,7.0,11.0,57,0.00,,,0.00,TxWx,2013-04-18 12:47:00,
2013-04-18 08:52:00,47.0,33.0,30.21,ESE,112,13.0,14.0,58,0.00,,,0.00,TxWx,2013-04-18 12:52:00,
2013-04-18 08:57:00,47.0,34.0,30.21,SE,135,14.0,17.0,61,0.00,,,0.00,TxWx,2013-04-18 12:57:00,
2013-04-18 09:03:00,48.0,36.0,30.20,ESE,112,18.0,27.0,64,0.00,,,0.00,TxWx,2013-04-18 13:03:00,
2013-04-18 09:08:00,47.0,36.0,30.20,ESE,112,15.0,21.0,65,0.00,,,0.00,TxWx,2013-04-18 13:08:00,
2013-04-18 09:13:00,48.0,37.0,30.20,SSE,157,14.0,15.0,66,0.00,,,0.00,TxWx,2013-04-18 13:13:00,
2013-04-18 09:18:00,48.0,37.0,30.20,ESE,112,11.0,16.0,66,0.00,,,0.00,TxWx,2013-04-18 13:18:00,
2013-04-18 09:23:00,47.0,36.0,30.19,SE,135,27.0,27.0,66,0.00,,,0.00,TxWx,2013-04-18 13:23:00,
2013-04-18 09:28:00,48.0,37.0,30.19,ESE,112,13.0,19.0,66,0.00,,,0.00,TxWx,2013-04-18 13:28:00,
2013-04-18 09:33:00,48.0,37.0,30.19,ESE,112,12.0,15.0,65,0.00,,,0.00,TxWx,2013-04-18 13:33:00,
2013-04-18 09:40:00,48.0,37.0,30.20,ESE,112,16.0,16.0,65,0.00,,,0.00,TxWx,2013-04-18 13:40:00,
2013-04-18 09:45:00,48.0,37.0,30.20,ESE,112,11.0,15.0,65,0.00,,,0.00,TxWx,2013-04-18 13:45:00,
2013-04-18 09:50:00,48.0,36.0,30.20,South,180,13.0,16.0,63,0.00,,,0.00,TxWx,2013-04-18 13:50:00,
2013-04-18 09:55:00,49.0,36.0,30.19,ESE,112,9.0,11.0,62,0.00,,,0.00,TxWx,2013-04-18 13:55:00,
2013-04-18 10:00:00,49.0,35.0,30.19,East,90,11.0,14.0,59,0.00,,,0.00,TxWx,2013-04-18 14:00:00,
2013-04-18 10:05:00,49.0,34.0,30.19,SE,135,17.0,17.0,57,0.00,,,0.00,TxWx,2013-04-18 14:05:00,
2013-04-18 10:10:00,50.0,34.0,30.19,SSE,157,8.0,16.0,55,0.00,,,0.00,TxWx,2013-04-18 14:10:00,
2013-04-18 10:15:00,50.0,34.0,30.20,ESE,112,16.0,17.0,54,0.00,,,0.00,TxWx,2013-04-18 14:15:00,
2013-04-18 10:20:00,50.0,33.0,30.20,SSE,157,6.0,8.0,53,0.00,,,0.00,TxWx,2013-04-18 14:20:00,
2013-04-18 10:26:00,50.0,33.0,30.19,SE,135,18.0,21.0,52,0.00,,,0.00,TxWx,2013-04-18 14:26:00,
2013-04-18 10:31:00,51.0,34.0,30.19,ESE,112,12.0,13.0,52,0.00,,,0.00,TxWx,2013-04-18 14:31:00,
2013-04-18 10:36:00,51.0,33.0,30.19,SSE,157,9.0,12.0,51,0.00,,,0.00,TxWx,2013-04-18 14:36:00,
2013-04-18 10:41:00,51.0,33.0,30.19,SSE,157,11.0,13.0,50,0.00,,,0.00,TxWx,2013-04-18 14:41:00,
2013-04-18 10:46:00,51.0,32.0,30.19,SE,135,8.0,10.0,49,0.00,,,0.00,TxWx,2013-04-18 14:46:00,
2013-04-18 10:51:00,52.0,33.0,30.18,ESE,112,8.0,10.0,49,0.00,,,0.00,TxWx,2013-04-18 14:51:00,
2013-04-18 10:56:00,52.0,33.0,30.18,ESE,112,14.0,16.0,48,0.00,,,0.00,TxWx,2013-04-18 14:56:00,
2013-04-18 11:01:00,52.0,32.0,30.18,South,180,13.0,13.0,47,0.00,,,0.00,TxWx,2013-04-18 15:01:00,
2013-04-18 11:06:00,52.0,31.0,30.18,East,90,10.0,14.0,46,0.00,,,0.00,TxWx,2013-04-18 15:06:00,
2013-04-18 11:11:00,52.0,30.0,30.18,ESE,112,12.0,14.0,45,0.00,,,0.00,TxWx,2013-04-18 15:11:00,
2013-04-18 11:16:00,52.0,30.0,30.18,ESE,112,14.0,14.0,45,0.00,,,0.00,TxWx,2013-04-18 15:16:00,
2013-04-18 11:21:00,53.0,30.0,30.18,SE,135,13.0,13.0,44,0.00,,,0.00,TxWx,2013-04-18 15:21:00,
2013-04-18 11:26:00,53.0,30.0,30.18,SE,135,8.0,13.0,43,0.00,,,0.00,TxWx,2013-04-18 15:26:00,
2013-04-18 11:31:00,53.0,29.0,30.18,SSE,157,11.0,19.0,42,0.00,,,0.00,TxWx,2013-04-18 15:31:00,
2013-04-18 11:36:00,54.0,30.0,30.18,SE,135,21.0,23.0,42,0.00,,,0.00,TxWx,2013-04-18 15:36:00,
2013-04-18 11:42:00,53.0,29.0,30.17,SE,135,19.0,27.0,41,0.00,,,0.00,TxWx,2013-04-18 15:42:00,
2013-04-18 11:47:00,56.0,33.0,30.17,SE,135,11.0,13.0,41,0.00,,,0.00,TxWx,2013-04-18 15:47:00,
2013-04-18 11:52:00,55.0,29.0,30.16,ESE,112,14.0,18.0,39,0.00,,,0.00,TxWx,2013-04-18 15:52:00,
2013-04-18 11:57:00,56.0,30.0,30.16,SE,135,15.0,27.0,39,0.00,,,0.00,TxWx,2013-04-18 15:57:00,
2013-04-18 12:02:00,57.0,32.0,30.16,ESE,112,20.0,20.0,39,0.00,,,0.00,TxWx,2013-04-18 16:02:00,
2013-04-18 12:07:00,56.0,30.0,30.15,ESE,112,19.0,19.0,39,0.00,,,0.00,TxWx,2013-04-18 16:07:00,
2013-04-18 12:12:00,57.0,31.0,30.15,ESE,112,23.0,23.0,39,0.00,,,0.00,TxWx,2013-04-18 16:12:00,
2013-04-18 12:17:00,56.0,30.0,30.15,SSE,157,23.0,26.0,38,0.00,,,0.00,TxWx,2013-04-18 16:17:00,
2013-04-18 12:22:00,56.0,30.0,30.15,ESE,112,17.0,22.0,39,0.00,,,0.00,TxWx,2013-04-18 16:22:00,
2013-04-18 12:27:00,56.0,30.0,30.15,SE,135,13.0,13.0,39,0.00,,,0.00,TxWx,2013-04-18 16:27:00,
2013-04-18 12:32:00,55.0,29.0,30.15,SE,135,21.0,21.0,39,0.00,,,0.00,TxWx,2013-04-18 16:32:00,
2013-04-18 12:37:00,56.0,30.0,30.15,ESE,112,10.0,10.0,39,0.00,,,0.00,TxWx,2013-04-18 16:37:00,
2013-04-18 12:43:00,57.0,31.0,30.15,ESE,112,12.0,15.0,38,0.00,,,0.00,TxWx,2013-04-18 16:43:00,
2013-04-18 12:48:00,56.0,30.0,30.14,SE,135,20.0,21.0,38,0.00,,,0.00,TxWx,2013-04-18 16:48:00,
2013-04-18 12:53:00,58.0,32.0,30.14,SE,135,15.0,16.0,38,0.00,,,0.00,TxWx,2013-04-18 16:53:00,
2013-04-18 12:58:00,57.0,30.0,30.14,SE,135,26.0,28.0,38,0.00,,,0.00,TxWx,2013-04-18 16:58:00,
2013-04-18 13:03:00,57.0,30.0,30.14,SSE,157,14.0,20.0,38,0.00,,,0.00,TxWx,2013-04-18 17:03:00,
2013-04-18 13:08:00,57.0,30.0,30.13,SE,135,16.0,23.0,37,0.00,,,0.00,TxWx,2013-04-18 17:08:00,
2013-04-18 13:13:00,57.0,30.0,30.13,SE,135,19.0,21.0,37,0.00,,,0.00,TxWx,2013-04-18 17:13:00,
2013-04-18 13:18:00,59.0,33.0,30.13,SE,135,16.0,18.0,38,0.00,,,0.00,TxWx,2013-04-18 17:18:00,
2013-04-18 13:23:00,57.0,30.0,30.13,ESE,112,17.0,23.0,37,0.00,,,0.00,TxWx,2013-04-18 17:23:00,
2013-04-18 13:28:00,58.0,30.0,30.12,SE,135,14.0,14.0,37,0.00,,,0.00,TxWx,2013-04-18 17:28:00,
2013-04-18 13:33:00,58.0,30.0,30.12,SE,135,19.0,26.0,36,0.00,,,0.00,TxWx,2013-04-18 17:33:00,
2013-04-18 13:38:00,58.0,30.0,30.12,ESE,112,17.0,18.0,36,0.00,,,0.00,TxWx,2013-04-18 17:38:00,
2013-04-18 13:43:00,58.0,30.0,30.11,SE,135,23.0,31.0,36,0.00,,,0.00,TxWx,2013-04-18 17:43:00,
2013-04-18 13:51:00,57.0,29.0,30.11,SE,135,24.0,27.0,36,0.00,,,0.00,TxWx,2013-04-18 17:51:00,
2013-04-18 13:56:00,57.0,29.0,30.12,ESE,112,21.0,23.0,36,0.00,,,0.00,TxWx,2013-04-18 17:56:00,
2013-04-18 14:02:00,58.0,30.0,30.12,SE,135,25.0,25.0,36,0.00,,,0.00,TxWx,2013-04-18 18:02:00,
2013-04-18 14:07:00,57.0,29.0,30.12,ESE,112,29.0,29.0,36,0.00,,,0.00,TxWx,2013-04-18 18:07:00,
2013-04-18 14:12:00,58.0,30.0,30.11,SSE,157,18.0,22.0,36,0.00,,,0.00,TxWx,2013-04-18 18:12:00,
2013-04-18 14:17:00,58.0,30.0,30.11,ESE,112,10.0,14.0,36,0.00,,,0.00,TxWx,2013-04-18 18:17:00,
2013-04-18 14:22:00,58.0,30.0,30.11,SE,135,20.0,24.0,36,0.00,,,0.00,TxWx,2013-04-18 18:22:00,
2013-04-18 14:27:00,59.0,32.0,30.10,SSE,157,14.0,14.0,36,0.00,,,0.00,TxWx,2013-04-18 18:27:00,
2013-04-18 14:32:00,58.0,29.0,30.10,SSE,157,27.0,28.0,35,0.00,,,0.00,TxWx,2013-04-18 18:32:00,
2013-04-18 14:37:00,58.0,30.0,30.11,SE,135,18.0,21.0,36,0.00,,,0.00,TxWx,2013-04-18 18:37:00,
2013-04-18 14:42:00,60.0,33.0,30.10,SE,135,16.0,16.0,36,0.00,,,0.00,TxWx,2013-04-18 18:42:00,
2013-04-18 14:47:00,60.0,33.0,30.10,SE,135,18.0,19.0,36,0.00,,,0.00,TxWx,2013-04-18 18:47:00,
2013-04-18 14:52:00,59.0,32.0,30.10,ESE,112,11.0,13.0,36,0.00,,,0.00,TxWx,2013-04-18 18:52:00,
2013-04-18 14:57:00,59.0,31.0,30.10,SSE,157,21.0,31.0,36,0.00,,,0.00,TxWx,2013-04-18 18:57:00,
2013-04-18 15:01:00,50.0,47.0,29.93,SE,135,13.0,13.0,89,0.00,,,0.00,TxWx,2013-04-18 19:01:00,
2013-04-18 15:02:00,59.0,32.0,30.09,SSW,202,11.0,14.0,37,0.00,,,0.00,TxWx,2013-04-18 19:02:00,
2013-04-18 15:03:00,50.0,47.0,29.93,SE,135,11.0,13.0,89,0.00,,,0.00,TxWx,2013-04-18 19:03:00,
2013-04-18 15:04:00,50.0,47.0,29.93,SSE,157,11.0,14.0,89,0.00,,,0.00,TxWx,2013-04-18 19:04:00,
2013-04-18 15:05:00,50.0,47.0,29.93,ESE,112,9.0,11.0,89,0.00,,,0.00,TxWx,2013-04-18 19:05:00,
2013-04-18 15:06:00,50.0,46.0,29.93,SE,135,15.0,15.0,89,0.00,,,0.00,TxWx,2013-04-18 19:06:00,
2013-04-18 15:07:00,59.0,32.0,30.09,SSE,157,16.0,18.0,37,0.00,,,0.00,TxWx,2013-04-18 19:07:00,
2013-04-18 15:08:00,50.0,47.0,29.93,SE,135,16.0,19.0,90,0.00,,,0.00,TxWx,2013-04-18 19:08:00,
2013-04-18 15:12:00,59.0,33.0,30.09,SSE,157,11.0,21.0,37,0.00,,,0.00,TxWx,2013-04-18 19:12:00,
2013-04-18 15:17:00,50.0,47.0,29.93,SE,135,18.0,18.0,91,0.00,,,0.00,TxWx,2013-04-18 19:17:00,
2013-04-18 15:18:00,58.0,32.0,30.09,SSE,157,13.0,14.0,38,0.00,,,0.00,TxWx,2013-04-18 19:18:00,
2013-04-18 15:19:00,50.0,48.0,29.92,SE,135,14.0,25.0,92,0.00,,,0.00,TxWx,2013-04-18 19:19:00,
2013-04-18 15:20:00,50.0,48.0,29.92,SE,135,13.0,21.0,92,0.00,,,0.00,TxWx,2013-04-18 19:20:00,
2013-04-18 15:23:00,57.0,30.0,30.09,SSE,157,18.0,25.0,38,0.00,,,0.00,TxWx,2013-04-18 19:23:00,
2013-04-18 15:27:00,50.0,48.0,29.92,SSE,157,15.0,19.0,93,0.00,,,0.00,TxWx,2013-04-18 19:27:00,
2013-04-18 15:28:00,58.0,32.0,30.09,SE,135,19.0,23.0,38,0.00,,,0.00,TxWx,2013-04-18 19:28:00,
2013-04-18 15:33:00,58.0,32.0,30.09,SE,135,27.0,29.0,38,0.00,,,0.00,TxWx,2013-04-18 19:33:00,
2013-04-18 15:38:00,59.0,33.0,30.09,SE,135,25.0,25.0,37,0.00,,,0.00,TxWx,2013-04-18 19:38:00,
2013-04-18 15:42:00,50.0,48.0,29.93,SE,135,16.0,23.0,94,0.00,,,0.00,TxWx,2013-04-18 19:42:00,
2013-04-18 15:43:00,58.0,30.0,30.08,ESE,112,20.0,25.0,37,0.00,,,0.00,TxWx,2013-04-18 19:43:00,
2013-04-18 15:48:00,58.0,32.0,30.07,SE,135,11.0,15.0,38,0.00,,,0.00,TxWx,2013-04-18 19:48:00,
2013-04-18 15:53:00,58.0,32.0,30.07,ESE,112,21.0,26.0,38,0.00,,,0.00,TxWx,2013-04-18 19:53:00,
2013-04-18 15:58:00,58.0,32.0,30.08,SE,135,18.0,26.0,38,0.00,,,0.00,TxWx,2013-04-18 19:58:00,
2013-04-18 16:03:00,58.0,32.0,30.07,SSE,157,21.0,23.0,38,0.00,,,0.00,TxWx,2013-04-18 20:03:00,
2013-04-18 16:08:00,57.0,32.0,30.07,SE,135,19.0,23.0,39,0.00,,,0.00,TxWx,2013-04-18 20:08:00,
2013-04-18 16:13:00,57.0,33.0,30.07,ESE,112,22.0,25.0,40,0.00,,,0.00,TxWx,2013-04-18 20:13:00,
2013-04-18 16:18:00,57.0,33.0,30.07,SSE,157,17.0,26.0,41,0.00,,,0.00,TxWx,2013-04-18 20:18:00,
2013-04-18 16:24:00,58.0,34.0,30.07,ESE,112,14.0,24.0,41,0.00,,,0.00,TxWx,2013-04-18 20:24:00,
2013-04-18 16:30:00,59.0,35.0,30.06,SE,135,11.0,22.0,41,0.00,,,0.00,TxWx,2013-04-18 20:30:00,
2013-04-18 16:35:00,59.0,35.0,30.06,SE,135,15.0,18.0,40,0.00,,,0.00,TxWx,2013-04-18 20:35:00,
2013-04-18 16:40:00,58.0,34.0,30.06,SE,135,13.0,14.0,40,0.00,,,0.00,TxWx,2013-04-18 20:40:00,
2013-04-18 16:45:00,58.0,34.0,30.06,SE,135,19.0,27.0,41,0.00,,,0.00,TxWx,2013-04-18 20:45:00,
2013-04-18 16:50:00,57.0,34.0,30.06,South,180,17.0,24.0,42,0.00,,,0.00,TxWx,2013-04-18 20:50:00,
2013-04-18 16:55:00,57.0,34.0,30.06,SSE,157,24.0,28.0,42,0.00,,,0.00,TxWx,2013-04-18 20:55:00,
2013-04-18 17:00:00,57.0,34.0,30.06,ESE,112,16.0,21.0,43,0.00,,,0.00,TxWx,2013-04-18 21:00:00,
2013-04-18 17:03:00,50.0,50.0,29.89,ESE,112,21.0,24.0,99,0.00,,,0.00,TxWx,2013-04-18 21:03:00,
2013-04-18 17:04:00,50.0,50.0,29.88,SE,135,17.0,27.0,99,0.00,,,0.00,TxWx,2013-04-18 21:04:00,
2013-04-18 17:05:00,57.0,35.0,30.06,SE,135,19.0,19.0,43,0.00,,,0.00,TxWx,2013-04-18 21:05:00,
2013-04-18 17:06:00,49.0,49.0,29.88,ESE,112,21.0,28.0,99,0.00,,,0.00,TxWx,2013-04-18 21:06:00,
2013-04-18 17:07:00,49.0,49.0,29.88,SE,135,29.0,34.0,99,0.00,,,0.00,TxWx,2013-04-18 21:07:00,
2013-04-18 17:08:00,50.0,50.0,29.88,SE,135,17.0,21.0,99,0.00,,,0.00,TxWx,2013-04-18 21:08:00,
2013-04-18 17:09:00,50.0,50.0,29.88,SE,135,18.0,22.0,99,0.00,,,0.00,TxWx,2013-04-18 21:09:00,
2013-04-18 17:10:00,57.0,35.0,30.07,SE,135,17.0,22.0,43,0.00,,,0.00,TxWx,2013-04-18 21:10:00,
2013-04-18 17:13:00,50.0,50.0,29.88,ESE,112,25.0,25.0,99,0.00,,,0.00,TxWx,2013-04-18 21:13:00,
2013-04-18 17:14:00,50.0,50.0,29.88,SE,135,26.0,30.0,99,0.00,,,0.00,TxWx,2013-04-18 21:14:00,
2013-04-18 17:15:00,57.0,35.0,30.07,SSE,157,15.0,16.0,44,0.00,,,0.00,TxWx,2013-04-18 21:15:00,
2013-04-18 17:20:00,56.0,34.0,30.06,SE,135,17.0,18.0,44,0.00,,,0.00,TxWx,2013-04-18 21:20:00,
2013-04-18 17:26:00,56.0,34.0,30.06,SE,135,11.0,19.0,44,0.00,,,0.00,TxWx,2013-04-18 21:26:00,
2013-04-18 17:31:00,56.0,34.0,30.06,SSE,157,16.0,20.0,44,0.00,,,0.00,TxWx,2013-04-18 21:31:00,
2013-04-18 17:34:00,50.0,50.0,29.88,ESE,112,26.0,26.0,100,0.00,,,0.00,TxWx,2013-04-18 21:34:00,
2013-04-18 17:35:00,50.0,50.0,29.87,SE,135,22.0,24.0,100,0.00,,,0.00,TxWx,2013-04-18 21:35:00,
2013-04-18 17:36:00,56.0,34.0,30.06,SE,135,26.0,27.0,44,0.00,,,0.00,TxWx,2013-04-18 21:36:00,
2013-04-18 17:41:00,55.0,33.0,30.06,SSE,157,18.0,20.0,44,0.00,,,0.00,TxWx,2013-04-18 21:41:00,
2013-04-18 17:46:00,55.0,33.0,30.05,SE,135,16.0,18.0,44,0.00,,,0.00,TxWx,2013-04-18 21:46:00,
2013-04-18 17:51:00,55.0,34.0,30.06,SE,135,17.0,22.0,45,0.00,,,0.00,TxWx,2013-04-18 21:51:00,
2013-04-18 17:56:00,55.0,34.0,30.05,ESE,112,12.0,18.0,45,0.00,,,0.00,TxWx,2013-04-18 21:56:00,
2013-04-18 18:01:00,55.0,34.0,30.05,SE,135,13.0,19.0,45,0.00,,,0.00,TxWx,2013-04-18 22:01:00,
2013-04-18 18:06:00,55.0,34.0,30.05,SSE,157,16.0,18.0,45,0.00,,,0.00,TxWx,2013-04-18 22:06:00,
2013-04-18 18:11:00,55.0,34.0,30.04,ESE,112,14.0,16.0,46,0.00,,,0.00,TxWx,2013-04-18 22:11:00,
2013-04-18 18:16:00,54.0,34.0,30.04,ESE,112,16.0,21.0,46,0.00,,,0.00,TxWx,2013-04-18 22:16:00,
2013-04-18 18:21:00,55.0,35.0,30.03,SE,135,18.0,21.0,47,0.00,,,0.00,TxWx,2013-04-18 22:21:00,
2013-04-18 18:27:00,55.0,35.0,30.03,SE,135,14.0,20.0,47,0.00,,,0.00,TxWx,2013-04-18 22:27:00,
2013-04-18 18:32:00,54.0,34.0,30.03,SE,135,14.0,16.0,47,0.00,,,0.00,TxWx,2013-04-18 22:32:00,
2013-04-18 18:37:00,54.0,34.0,30.03,ESE,112,24.0,24.0,47,0.00,,,0.00,TxWx,2013-04-18 22:37:00,
2013-04-18 18:42:00,54.0,34.0,30.03,SE,135,18.0,23.0,47,0.00,,,0.00,TxWx,2013-04-18 22:42:00,
2013-04-18 18:47:00,54.0,34.0,30.03,SE,135,10.0,16.0,47,0.00,,,0.00,TxWx,2013-04-18 22:47:00,
2013-04-18 18:52:00,54.0,34.0,30.02,SE,135,14.0,21.0,47,0.00,,,0.00,TxWx,2013-04-18 22:52:00,
2013-04-18 18:57:00,54.0,34.0,30.03,SSE,157,11.0,14.0,48,0.00,,,0.00,TxWx,2013-04-18 22:57:00,
2013-04-18 19:02:00,54.0,35.0,30.03,ESE,112,19.0,23.0,48,0.00,,,0.00,TxWx,2013-04-18 23:02:00,
2013-04-18 19:07:00,54.0,35.0,30.03,SSE,157,19.0,19.0,49,0.00,,,0.00,TxWx,2013-04-18 23:07:00,
2013-04-18 19:12:00,53.0,35.0,30.02,SSE,157,18.0,18.0,50,0.00,,,0.00,TxWx,2013-04-18 23:12:00,
2013-04-18 19:17:00,53.0,35.0,30.02,SSE,157,15.0,21.0,50,0.00,,,0.00,TxWx,2013-04-18 23:17:00,
2013-04-18 19:22:00,53.0,35.0,30.02,SE,135,13.0,17.0,50,0.00,,,0.00,TxWx,2013-04-18 23:22:00,
2013-04-18 19:27:00,53.0,35.0,30.02,SE,135,20.0,24.0,50,0.00,,,0.00,TxWx,2013-04-18 23:27:00,
2013-04-18 19:33:00,53.0,35.0,30.02,ESE,112,21.0,26.0,50,0.00,,,0.00,TxWx,2013-04-18 23:33:00,
2013-04-18 19:38:00,53.0,35.0,30.02,ESE,112,25.0,29.0,50,0.00,,,0.00,TxWx,2013-04-18 23:38:00,
2013-04-18 19:43:00,53.0,35.0,30.01,SSE,157,14.0,18.0,50,0.00,,,0.00,TxWx,2013-04-18 23:43:00,
2013-04-18 19:48:00,53.0,35.0,30.01,SSE,157,17.0,18.0,50,0.00,,,0.00,TxWx,2013-04-18 23:48:00,
2013-04-18 19:53:00,53.0,35.0,30.00,ESE,112,21.0,26.0,50,0.00,,,0.00,TxWx,2013-04-18 23:53:00,
2013-04-18 19:58:00,53.0,35.0,30.00,SE,135,13.0,13.0,51,0.00,,,0.00,TxWx,2013-04-18 23:58:00,
2013-04-18 20:03:00,52.0,34.0,30.00,SSE,157,16.0,21.0,51,0.00,,,0.00,TxWx,2013-04-19 00:03:00,
2013-04-18 20:08:00,52.0,35.0,30.00,ESE,112,9.0,14.0,52,0.00,,,0.00,TxWx,2013-04-19 00:08:00,
2013-04-18 20:13:00,52.0,35.0,30.00,SE,135,10.0,11.0,53,0.00,,,0.00,TxWx,2013-04-19 00:13:00,
2013-04-18 20:18:00,52.0,35.0,30.00,SE,135,17.0,17.0,52,0.00,,,0.00,TxWx,2013-04-19 00:18:00,
2013-04-18 20:23:00,52.0,35.0,30.00,SE,135,10.0,13.0,53,0.00,,,0.00,TxWx,2013-04-19 00:23:00,
2013-04-18 20:28:00,52.0,36.0,30.00,SE,135,21.0,21.0,54,0.00,,,0.00,TxWx,2013-04-19 00:28:00,
2013-04-18 20:33:00,52.0,36.0,29.99,ESE,112,19.0,20.0,55,0.00,,,0.00,TxWx,2013-04-19 00:33:00,
2013-04-18 20:38:00,52.0,37.0,30.00,ESE,112,18.0,20.0,57,0.00,,,0.00,TxWx,2013-04-19 00:38:00,
2013-04-18 20:43:00,52.0,38.0,30.00,SE,135,18.0,21.0,59,0.00,,,0.00,TxWx,2013-04-19 00:43:00,
2013-04-18 20:49:00,51.0,38.0,30.00,SE,135,17.0,17.0,61,0.00,,,0.00,TxWx,2013-04-19 00:49:00,
2013-04-18 20:54:00,52.0,39.0,29.99,ESE,112,22.0,24.0,62,0.00,,,0.00,TxWx,2013-04-19 00:54:00,
2013-04-18 20:59:00,51.0,38.0,29.99,SE,135,19.0,23.0,62,0.00,,,0.00,TxWx,2013-04-19 00:59:00,
2013-04-18 21:04:00,51.0,38.0,29.99,SE,135,14.0,14.0,62,0.00,,,0.00,TxWx,2013-04-19 01:04:00,
2013-04-18 21:09:00,52.0,39.0,29.99,ESE,112,15.0,24.0,61,0.00,,,0.00,TxWx,2013-04-19 01:09:00,
2013-04-18 21:14:00,51.0,38.0,29.99,ESE,112,27.0,27.0,61,0.00,,,0.00,TxWx,2013-04-19 01:14:00,
2013-04-18 21:19:00,51.0,38.0,29.99,SSE,157,13.0,19.0,62,0.00,,,0.00,TxWx,2013-04-19 01:19:00,
2013-04-18 21:24:00,51.0,39.0,29.99,SE,135,14.0,17.0,63,0.00,,,0.00,TxWx,2013-04-19 01:24:00,
2013-04-18 21:29:00,51.0,39.0,29.99,SSE,157,13.0,19.0,64,0.00,,,0.00,TxWx,2013-04-19 01:29:00,
2013-04-18 21:34:00,51.0,40.0,29.98,ESE,112,14.0,19.0,65,0.00,,,0.00,TxWx,2013-04-19 01:34:00,
2013-04-18 21:39:00,51.0,40.0,29.97,ESE,112,14.0,18.0,66,0.00,,,0.00,TxWx,2013-04-19 01:39:00,
2013-04-18 21:44:00,50.0,39.0,29.98,ESE,112,18.0,23.0,67,0.00,,,0.00,TxWx,2013-04-19 01:44:00,
2013-04-18 21:49:00,50.0,40.0,29.97,SE,135,19.0,27.0,68,0.00,,,0.00,TxWx,2013-04-19 01:49:00,
2013-04-18 21:55:00,50.0,40.0,29.97,ESE,112,17.0,20.0,69,0.00,,,0.00,TxWx,2013-04-19 01:55:00,
2013-04-18 22:00:00,50.0,40.0,29.96,SE,135,24.0,30.0,70,0.00,,,0.00,TxWx,2013-04-19 02:00:00,
2013-04-18 22:05:00,50.0,41.0,29.97,ESE,112,26.0,26.0,71,0.00,,,0.00,TxWx,2013-04-19 02:05:00,
2013-04-18 22:10:00,51.0,42.0,29.97,ESE,112,23.0,23.0,72,0.00,,,0.00,TxWx,2013-04-19 02:10:00,
2013-04-18 22:15:00,50.0,42.0,29.98,South,180,13.0,14.0,73,0.00,,,0.00,TxWx,2013-04-19 02:15:00,
2013-04-18 22:20:00,50.0,42.0,29.98,SSE,157,14.0,16.0,74,0.00,,,0.00,TxWx,2013-04-19 02:20:00,
2013-04-18 22:25:00,51.0,43.0,29.98,SE,135,23.0,24.0,75,0.00,,,0.00,TxWx,2013-04-19 02:25:00,
2013-04-18 22:30:00,50.0,42.0,29.97,SE,135,16.0,18.0,75,0.00,,,0.00,TxWx,2013-04-19 02:30:00,
2013-04-18 22:35:00,50.0,43.0,29.97,SE,135,18.0,22.0,76,0.00,,,0.00,TxWx,2013-04-19 02:35:00,
2013-04-18 22:40:00,50.0,43.0,29.97,ESE,112,17.0,17.0,77,0.00,,,0.00,TxWx,2013-04-19 02:40:00,
2013-04-18 22:45:00,50.0,43.0,29.97,SE,135,14.0,16.0,77,0.00,,,0.00,TxWx,2013-04-19 02:45:00,
2013-04-18 22:50:00,50.0,43.0,29.96,SE,135,13.0,14.0,78,0.00,,,0.00,TxWx,2013-04-19 02:50:00,
2013-04-18 22:55:00,50.0,44.0,29.97,SE,135,14.0,17.0,79,0.00,,,0.00,TxWx,2013-04-19 02:55:00,
2013-04-18 23:00:00,50.0,44.0,29.96,SSE,157,16.0,20.0,79,0.00,,,0.00,TxWx,2013-04-19 03:00:00,
2013-04-18 23:06:00,50.0,44.0,29.96,SE,135,13.0,16.0,79,0.00,,,0.00,TxWx,2013-04-19 03:06:00,
2013-04-18 23:11:00,50.0,44.0,29.96,SSE,157,13.0,15.0,80,0.00,,,0.00,TxWx,2013-04-19 03:11:00,
2013-04-18 23:16:00,50.0,44.0,29.95,SE,135,14.0,18.0,81,0.00,,,0.00,TxWx,2013-04-19 03:16:00,
2013-04-18 23:21:00,50.0,44.0,29.95,SE,135,22.0,24.0,83,0.00,,,0.00,TxWx,2013-04-19 03:21:00,
2013-04-18 23:26:00,50.0,45.0,29.94,SSE,157,14.0,21.0,84,0.00,,,0.00,TxWx,2013-04-19 03:26:00,
2013-04-18 23:31:00,50.0,46.0,29.94,ESE,112,16.0,16.0,85,0.00,,,0.00,TxWx,2013-04-19 03:31:00,
2013-04-18 23:36:00,49.0,45.0,29.93,ESE,112,20.0,26.0,85,0.00,,,0.00,TxWx,2013-04-19 03:36:00,
2013-04-18 23:41:00,50.0,46.0,29.93,SE,135,18.0,21.0,86,0.00,,,0.00,TxWx,2013-04-19 03:41:00,
2013-04-18 23:46:00,49.0,45.0,29.94,ESE,112,21.0,22.0,87,0.00,,,0.00,TxWx,2013-04-19 03:46:00,
2013-04-18 23:51:00,49.0,45.0,29.93,ESE,112,14.0,25.0,87,0.00,,,0.00,TxWx,2013-04-19 03:51:00,
2013-04-18 23:56:00,50.0,47.0,29.93,SE,135,16.0,21.0,88,0.00,,,0.00,TxWx,2013-04-19 03:56:00,